Location: Antoign�
(47.0844°N, 0.1131°W)
Time: 19:57:22
(UTC+00:00)

Cosmos 1933 Rocket - Pass Details

Date: 03 March 2021
Orbit: 607 x 629 km, 82.5° (Epoch: 14 April)

Event Time Altitude Azimuth Distance (km) Brightness Sun altitude
Rises 18:56:05 0° 177° (S) 2,859 6.9 -12.2°
Reaches altitude 10° 18:58:18 10° 173° (S) 1,962 6.0 -12.6°
Maximum altitude 19:02:33 57° 95° (E) 724 3.6 -13.3°
Drops below altitude 10° 19:06:53 10° 17° (NNE) 1,991 6.0 -14.0°
Sets 19:09:09 0° 13° (NNE) 2,906 6.9 -14.4°
